User: anonymous   Login
Location: Sperry Observatory
(40.6664°N, 74.3236°W)
Time: 15:24:08
(UTC-04:00)
Language:

FO-29 - Orbit

View from above orbital plane
View from above orbital plane
View from above satellite
View from above satellite

Ground track
Ground track

The orbit data is extracted from the following two-line orbital elements,

1 24278U 96046B   18144.56742774 -.00000027  00000-0  71237-5 0  9993
2 24278  98.5193 346.5791 0350527 172.0460 188.6444 13.53083535 75044
Epoch (UTC): 24 May 2018 13:37:05
Eccentricity: 0.0350527
inclination: 98.5193°
perigee height: 800 km
apogee height: 1321 km
right ascension of ascending node: 346.5791°
argument of perigee: 172.0460°
revolutions per day: 13.53083535
mean anomaly at epoch: 188.6444°
orbit number at epoch: 7504

The dashed part of the orbit path shows where the satellite is in the earth's shadow,  

DLR